Andalusia, AL

4:35 AM CST on December 16, 2017 (GMT -0600)
Andalusia

Weather History for K79J - March, 2013

Change the Weather History Date:

Thursday, March 28, 2013

  Actual Average (KCEW) Record (KCEW)
Temperature  
Mean Temperature 54 °F -  
Max Temperature 72 °F 70 °F 84 °F (2007)
Min Temperature 36 °F 48 °F 28 °F (2013)
Degree Days  
Heating Degree Days 11    
Growing Degree Days 4 (Base 50)    
Moisture  
Dew Point 30 °F    
Average Humidity 46    
Maximum Humidity 82    
Minimum Humidity 17    
Precipitation  
Precipitation 0.00 in - - ()
Sea Level Pressure  
Sea Level Pressure 30.30 in    
Wind  
Wind Speed 1 mph (NE)    
Max Wind Speed 7 mph    
Max Gust Speed -    
Visibility 10 miles    
Events      
Averages and records for this station are not official NWS values.
T = Trace of Precipitation, MM = Missing Value Source: NWS Daily Summary

Daily Weather History Graph

Daily Weather History Graph

Search for Another Location

Airport or City:

Trip Planner

Search our weather history database for the weather conditions in past years. The results will help you decide how hot, cold, wet, or windy it might be!

Date:

Astronomy

Mar. 28, 2013 Rise Set
Actual Time 6:38 AM CDT 7:02 PM CDT
Civil Twilight 6:14 AM CDT 7:26 PM CDT
Nautical Twilight 5:46 AM CDT 7:55 PM CDT
Astronomical Twilight 5:17 AM CDT 8:24 PM CDT
Moon 8:44 PM CDT (3/28) 7:13 AM CDT (3/28)
Length of Visible Light 13h 12m
Length of Day
12h 23m
Full, 98% of the Moon is Illuminated
Mar 28
Full
Apr 2
Last Quarter
Apr 10
New
Apr 18
First Quarter
Apr 25
Full

Hourly Weather History & Observations

Time (CDT) Temp. Dew Point Humidity Pressure Visibility Wind Dir Wind Speed Gust Speed Precip Events Conditions
12:56 AM 41.0 °F 30.9 °F 67% 30.30 in 10.0 mi Calm Calm - N/A   Clear
1:56 AM 39.9 °F 30.9 °F 70% 30.30 in 10.0 mi Calm Calm - N/A   Clear
2:56 AM 37.9 °F 30.0 °F 73% 30.30 in 10.0 mi Calm Calm - N/A   Clear
3:56 AM 37.0 °F 30.0 °F 76% 30.30 in 9.0 mi Calm Calm - N/A   Clear
4:56 AM 37.9 °F 30.0 °F 73% 30.31 in 10.0 mi Calm Calm - N/A   Clear
5:56 AM 36.0 °F 30.9 °F 82% 30.33 in 8.0 mi Calm Calm - N/A   Clear
6:56 AM 36.0 °F 30.0 °F 79% 30.33 in 8.0 mi Calm Calm - N/A   Clear
7:56 AM 44.1 °F 35.1 °F 71% 30.35 in 10.0 mi Calm Calm - N/A   Clear
8:56 AM 54.0 °F 30.9 °F 41% 30.36 in 10.0 mi ESE 4.6 mph - N/A   Clear
9:56 AM 60.1 °F 28.9 °F 31% 30.36 in 10.0 mi SE 6.9 mph - N/A   Clear
10:56 AM 63.0 °F 26.1 °F 25% 30.36 in 10.0 mi NNE 5.8 mph - N/A   Clear
11:56 AM 66.0 °F 25.0 °F 21% 30.34 in 10.0 mi NNW 6.9 mph - N/A   Clear
12:56 PM 68.0 °F 23.0 °F 18% 30.32 in 10.0 mi NNE 4.6 mph - N/A   Clear
1:56 PM 70.0 °F 27.0 °F 20% 30.29 in 10.0 mi NE 4.6 mph - N/A   Clear
2:56 PM 71.1 °F 25.0 °F 18% 30.26 in 10.0 mi Calm Calm - N/A   Clear
3:56 PM 71.1 °F 25.0 °F 18% 30.23 in 10.0 mi West 5.8 mph - N/A   Clear
4:56 PM 72.0 °F 26.1 °F 18% 30.23 in 10.0 mi Variable 4.6 mph - N/A   Clear
5:56 PM 72.0 °F 24.1 °F 17% 30.23 in 10.0 mi Calm Calm - N/A   Clear
6:56 PM 64.9 °F 30.0 °F 27% 30.25 in 10.0 mi Calm Calm - N/A   Clear
7:56 PM 57.9 °F 34.0 °F 41% 30.26 in 10.0 mi Calm Calm - N/A   Clear
8:56 PM 53.1 °F 37.9 °F 57% 30.27 in 10.0 mi Calm Calm - N/A   Clear
9:56 PM 55.0 °F 36.0 °F 49% 30.30 in 10.0 mi Calm Calm - N/A   Clear
10:56 PM 51.1 °F 36.0 °F 56% 30.31 in 10.0 mi Calm Calm - N/A   Clear
11:56 PM 48.9 °F 37.0 °F 64% 30.30 in 10.0 mi Calm Calm - N/A   Clear